Content
SEND FEEDBACK

Daily
Averages
Monthly
Summary
Turkmenistan

ASHGABAT, TURKMENISTAN


Home > Asia > Turkmenistan
Elevation: 775 feet     Latitude: 37 58N     Longitude: 058 20E

WEATHER
 
SELECT A DAY
Number of Records: 177,131;   Date Range: 3/15/97 - 7/22/14
 
SHARE

PRINT THIS DATA

[ ← Previous Day ]
WEATHER ALMANAC - JANUARY 20, 2014
[ Next Day → ]
[ °C ]   °F
Weather ElementAverageHighLow
Temperature47.5 °F55.4 °F (2:00 pm)37.4 °F (6:00 am)
Dewpoint35.3 °F39 °F (8:00 pm)31 °F (8:00 am)
Humidity60.6 %87 % (6:00 am)39 % (2:00 pm)
Barometer30.16 in30.23 in (11:00 am)30.09 in (1:00 am)
Wind Speed4.1 mph8.9 mph (1:00 am)
Weather ElementAverage
Visibility6.1 mi
Wind DirectionSSE (158.3 °)

Weather ElementTotal
Precipitation---
Heating Degree Days18.6 (Base 65)
Averaged from 31 records on January 20, 2014
WEATHER CONDITIONS BREAKOUT
WIND DIRECTION BREAKOUT
WEATHER BY HOUR - JANUARY 20, 2014
[ °C ]   °F
Local TimeTemperatureDewpointHumidityBarometerVisibilityWind DirectionWind SpeedGust SpeedPrecipitationEventsConditions
1:00 AM44.6 °F33.8 °F66 %30.09 in6.2 miWNW (290°)8.9 mphOvercast
2:00 AM45.0 °F35.0 °F59 %30.14 in6.0 miWest (260°)4.5 mphOvercast
2:00 AM42.8 °F35.6 °F76 %30.09 in6.2 miWest (270°)4.5 mphOvercast
3:00 AM42.8 °F33.8 °F70 %30.12 in6.2 miWest (280°)4.5 mphOvercast
4:00 AM42.8 °F33.8 °F70 %30.12 in6.2 miVariable2.2 mphOvercast
5:00 AM42.0 °F34.0 °F64 %30.17 in6.0 miSW (230°)4.5 mphPartly Cloudy
5:00 AM41.0 °F33.8 °F76 %30.12 in6.2 miSW (220°)4.5 mphScattered Clouds
6:00 AM37.4 °F33.8 °F87 %30.12 in6.2 miCalmScattered Clouds
7:00 AM41.0 °F32.0 °F70 %30.15 in6.2 miSSW (200°)4.5 mphMostly Cloudy
8:00 AM41.0 °F31.0 °F56 %30.21 in6.0 miSSW (210°)6.7 mphOvercast
8:00 AM39.2 °F32.0 °F75 %30.18 in6.2 miSSW (210°)6.7 mphOvercast
9:00 AM41.0 °F32.0 °F70 %30.18 in6.2 miSSW (200°)4.5 mphOvercast
10:00 AM48.2 °F33.8 °F58 %30.18 in6.2 miCalmOvercast
11:00 AM48.0 °F32.0 °F42 %30.23 in6.0 miNorth4.5 mphOvercast
11:00 AM50.0 °F33.8 °F54 %30.21 in6.2 miNorth (350°)4.5 mphOvercast
12:00 PM51.8 °F37.4 °F58 %30.18 in6.2 miVariable2.2 mphMostly Cloudy
1:00 PM53.6 °F37.4 °F54 %30.18 in6.2 miVariable2.2 mphMostly Cloudy
2:00 PM54.0 °F36.0 °F39 %30.18 in6.0 miCalmPartly Cloudy
2:00 PM55.4 °F35.6 °F47 %30.15 in6.2 miCalmMostly Cloudy
3:00 PM55.4 °F35.6 °F47 %30.12 in6.2 miVariable2.2 mphMostly Cloudy
4:00 PM53.6 °F37.4 °F54 %30.12 in6.2 miNNE (20°)6.7 mphOvercast
5:00 PM54.0 °F37.0 °F42 %30.17 in6.0 miNNW (340°)6.7 mphOvercast
5:00 PM53.6 °F37.4 °F54 %30.15 in6.2 miNorth (350°)6.7 mphOvercast
6:00 PM51.8 °F37.4 °F58 %30.15 in6.2 miNNW (340°)4.5 mphOvercast
7:00 PM51.8 °F37.4 °F58 %30.18 in6.2 miNNW (340°)2.2 mphRainLight Rain Showers
8:00 PM50.0 °F39.0 °F55 %30.20 in6.0 miEast (90°)2.2 mphRainLight Rain Showers
8:00 PM50.0 °F37.4 °F62 %30.18 in6.2 miEast (80°)4.5 mphOvercast
9:00 PM50.0 °F37.4 °F62 %30.18 in6.2 miCalmOvercast
10:00 PM48.2 °F37.4 °F66 %30.15 in6.2 miEast (100°)4.5 mphOvercast
11:00 PM47.0 °F37.0 °F58 %30.20 in6.0 miNorth (10°)8.9 mphPartly Cloudy
11:00 PM46.4 °F37.4 °F71 %30.18 in6.2 miNorth (360°)8.9 mphOvercast
Hourly data recorded from UTAA, located miles away from Ashgabat, Turkmenistan







STORIES FROM OUR PARTNERS